AAUSAT2
1 32788U 08021F 25106.44873994 .00341768 00000-0 26090-2 0 9999
2 32788 97.6002 102.2047 0009020 132.0379 228.1652 15.71143492924958


Ligne 0
Le nom commun de l'objetAAUSAT2
Ligne 1
Numéro de catalogue satellite32788U
Désignateur international08021F
Année de lancement08
Numéro de lancement dans l'année021
Object du lancementF
Époque (année)25
Époque (Jour de l'année en UTC)106.44873994
1ère dérivée du mouvement moyen .00341768
2ème dérivée du mouvement moyen 00000-0
B * Terme de glissement 26090-2
Type de jeu d'éléments0
Numéro d'élément 999
Ligne 2
Numéro de catalogue satellite32788
Inclinaison de l'orbite (degrés) 97.6002
Ascension droite du nœud ascendant (degrés)102.2047
Excentricité0009020
Argument du Périgée (degrés)132.0379
Anomalie moyenne (degrés)228.1652
Mouvement moyen (révolutions / jour)15.71143492
Numéro de révolution à l'époque92495
Valeurs déduites
Période Orbitale (en minutes)91.7 min.
Demi-grand axe (en kilomètres)6733.8 Km
Altitude à l‘Apogée (en kilomètres)368.8 Km
Altitude au Périgée (en kilomètres)356.7 Km

* Sources des TLE's : Celestrack